BVX7126 PHKO-PHLI

Flight info

Callsign BVX7126
Flight time 0h 44m
Altitude 28000
Route ONIZU1 JULLE V16 NAPUA LIH
Aircraft B738/M-SDE2E3FGHIRWXY/LB1

Departure

Time 2026-05-06 19:04
Airport Ellison Onizuka Kona International Airport at Keāhole (PHKO)

Arrival

Time 2026-05-06 19:48
Airport Lihue Airport (PHLI)
Time Latitude Longitude Altitude Speed Heading
2026-05-06 18:40 19.73506 -156.04222 48 ft 0 kts 42°
2026-05-06 18:56 19.73503 -156.04226 46 ft 4 kts 41°
2026-05-06 18:56 19.73483 -156.04245 47 ft 4 kts 49°
2026-05-06 18:56 19.73473 -156.04265 44 ft 2 kts 93°
2026-05-06 18:56 19.73474 -156.04291 43 ft 4 kts 93°
2026-05-06 18:57 19.73476 -156.04318 45 ft 4 kts 84°
2026-05-06 18:57 19.73466 -156.04340 45 ft 4 kts 29°
2026-05-06 18:57 19.73442 -156.04349 43 ft 4 kts
2026-05-06 18:57 19.73427 -156.04351 43 ft 1 kts
2026-05-06 18:59 19.73428 -156.04350 43 ft 1 kts
2026-05-06 18:59 19.73471 -156.04347 42 ft 12 kts
2026-05-06 19:00 19.73596 -156.04335 44 ft 23 kts
2026-05-06 19:00 19.73785 -156.04319 42 ft 30 kts
2026-05-06 19:00 19.73997 -156.04299 42 ft 30 kts
2026-05-06 19:00 19.74131 -156.04287 42 ft 29 kts
2026-05-06 19:01 19.74385 -156.04264 47 ft 26 kts
2026-05-06 19:01 19.74559 -156.04249 49 ft 25 kts
2026-05-06 19:01 19.74724 -156.04233 50 ft 24 kts
2026-05-06 19:01 19.74905 -156.04217 52 ft 28 kts
2026-05-06 19:02 19.75115 -156.04198 44 ft 32 kts
2026-05-06 19:02 19.75293 -156.04184 45 ft 14 kts
2026-05-06 19:02 19.75356 -156.04220 41 ft 11 kts 287°
2026-05-06 19:02 19.75364 -156.04316 42 ft 17 kts 274°
2026-05-06 19:03 19.75368 -156.04419 41 ft 12 kts 252°
2026-05-06 19:03 19.75293 -156.04441 42 ft 13 kts 185°
2026-05-06 19:03 19.75090 -156.04459 47 ft 56 kts 185°
2026-05-06 19:03 19.74504 -156.04512 45 ft 111 kts 185°
2026-05-06 19:04 19.73585 -156.04595 45 ft 151 kts 185°
2026-05-06 19:04 19.72487 -156.04689 403 ft 160 kts 185°
2026-05-06 19:04 19.71356 -156.04821 825 ft 171 kts 200°
2026-05-06 19:04 19.70537 -156.05676 1229 ft 174 kts 253°
2026-05-06 19:05 19.70657 -156.06892 1711 ft 171 kts 300°
2026-05-06 19:05 19.71253 -156.08028 2149 ft 186 kts 297°
2026-05-06 19:05 19.71878 -156.09341 2372 ft 211 kts 296°
2026-05-06 19:05 19.72321 -156.10304 2475 ft 225 kts 296°
2026-05-06 19:06 19.73262 -156.12415 2734 ft 252 kts 295°
2026-05-06 19:06 19.74020 -156.14161 3141 ft 266 kts 295°
2026-05-06 19:06 19.74531 -156.15357 3562 ft 269 kts 294°
2026-05-06 19:06 19.75301 -156.17177 4275 ft 271 kts 294°
2026-05-06 19:07 19.76068 -156.19008 5043 ft 272 kts 294°
2026-05-06 19:07 19.76839 -156.20857 5722 ft 275 kts 293°
2026-05-06 19:07 19.77617 -156.22732 6405 ft 279 kts 293°
2026-05-06 19:07 19.78405 -156.24636 7078 ft 282 kts 292°
2026-05-06 19:08 19.79192 -156.26540 7851 ft 281 kts 293°
2026-05-06 19:08 19.79976 -156.28438 8522 ft 286 kts 293°
2026-05-06 19:08 19.80779 -156.30384 9236 ft 288 kts 293°
2026-05-06 19:08 19.81579 -156.32316 9955 ft 291 kts 294°
2026-05-06 19:09 19.82655 -156.34180 10362 ft 306 kts 309°
2026-05-06 19:09 19.84121 -156.35940 10516 ft 328 kts 312°
2026-05-06 19:09 19.85725 -156.37768 10755 ft 344 kts 313°
2026-05-06 19:09 19.87384 -156.39649 11258 ft 350 kts 312°
2026-05-06 19:10 19.89026 -156.41525 11903 ft 352 kts 311°
2026-05-06 19:10 19.90694 -156.43448 12569 ft 354 kts 311°
2026-05-06 19:10 19.92363 -156.45388 13211 ft 357 kts 311°
2026-05-06 19:10 19.94050 -156.47359 13856 ft 361 kts 310°
2026-05-06 19:11 19.95745 -156.49346 14417 ft 364 kts 310°
2026-05-06 19:11 19.97431 -156.51328 15000 ft 368 kts 310°
2026-05-06 19:11 19.99159 -156.53362 15588 ft 371 kts 310°
2026-05-06 19:11 20.00897 -156.55408 16172 ft 375 kts 311°
2026-05-06 19:12 20.02656 -156.57481 16746 ft 378 kts 311°
2026-05-06 19:12 20.04434 -156.59576 17276 ft 383 kts 311°
2026-05-06 19:12 20.06229 -156.61693 17846 ft 387 kts 311°
2026-05-06 19:12 20.08017 -156.63802 18400 ft 390 kts 311°
2026-05-06 19:13 20.09841 -156.65955 18885 ft 393 kts 311°
2026-05-06 19:13 20.11683 -156.68129 19372 ft 396 kts 311°
2026-05-06 19:13 20.13537 -156.70318 19871 ft 399 kts 311°
2026-05-06 19:13 20.15379 -156.72494 20342 ft 402 kts 311°
2026-05-06 19:14 20.17254 -156.74710 20836 ft 404 kts 311°
2026-05-06 19:14 20.19151 -156.76953 21306 ft 407 kts 311°
2026-05-06 19:14 20.21056 -156.79206 21811 ft 409 kts 311°
2026-05-06 19:14 20.22945 -156.81441 22278 ft 412 kts 312°
2026-05-06 19:15 20.24874 -156.83724 22719 ft 415 kts 312°
2026-05-06 19:15 20.26817 -156.86027 23167 ft 418 kts 312°
2026-05-06 19:15 20.28768 -156.88338 23609 ft 421 kts 312°
2026-05-06 19:15 20.30733 -156.90666 23998 ft 423 kts 312°
2026-05-06 19:16 20.32701 -156.92957 24429 ft 424 kts 314°
2026-05-06 19:16 20.34805 -156.95151 24946 ft 422 kts 316°
2026-05-06 19:16 20.36953 -156.97279 25524 ft 418 kts 317°
2026-05-06 19:16 20.39082 -156.99375 26107 ft 416 kts 316°
2026-05-06 19:17 20.41192 -157.01475 26662 ft 414 kts 316°
2026-05-06 19:17 20.43283 -157.03582 27207 ft 412 kts 316°
2026-05-06 19:17 20.45330 -157.05655 27760 ft 410 kts 315°
2026-05-06 19:17 20.47405 -157.07763 28078 ft 412 kts 315°
2026-05-06 19:18 20.49477 -157.09866 28067 ft 409 kts 315°
2026-05-06 19:18 20.53606 -157.14055 28087 ft 409 kts 315°
2026-05-06 19:19 20.57713 -157.18226 28087 ft 410 kts 315°
2026-05-06 19:19 20.61836 -157.22418 28086 ft 411 kts 316°
2026-05-06 19:20 20.65986 -157.26639 28086 ft 411 kts 315°
2026-05-06 19:20 20.70120 -157.30880 28084 ft 411 kts 315°
2026-05-06 19:21 20.74209 -157.35096 28087 ft 411 kts 315°
2026-05-06 19:21 20.78323 -157.39339 28087 ft 410 kts 315°
2026-05-06 19:22 20.82441 -157.43587 28087 ft 410 kts 315°
2026-05-06 19:22 20.86519 -157.47798 28087 ft 410 kts 315°
2026-05-06 19:23 20.90620 -157.52035 28096 ft 409 kts 315°
2026-05-06 19:23 20.94721 -157.56285 28085 ft 410 kts 314°
2026-05-06 19:23 20.96373 -157.58707 28083 ft 409 kts 295°
2026-05-06 19:24 20.97397 -157.61559 28105 ft 409 kts 289°
2026-05-06 19:24 20.99173 -157.67368 28092 ft 411 kts 288°
2026-05-06 19:25 21.00911 -157.73026 27760 ft 395 kts 289°
2026-05-06 19:25 21.01779 -157.75796 27417 ft 391 kts 289°
2026-05-06 19:25 21.02650 -157.78555 27035 ft 388 kts 289°
2026-05-06 19:25 21.03515 -157.81288 26652 ft 386 kts 289°
2026-05-06 19:26 21.04372 -157.83998 26270 ft 384 kts 289°
2026-05-06 19:26 21.05216 -157.86664 25895 ft 382 kts 289°
2026-05-06 19:26 21.06065 -157.89351 25497 ft 380 kts 289°
2026-05-06 19:26 21.06913 -157.92037 25094 ft 379 kts 289°
2026-05-06 19:27 21.07757 -157.94706 24695 ft 378 kts 289°
2026-05-06 19:27 21.08604 -157.97335 24294 ft 378 kts 290°
2026-05-06 19:27 21.09464 -157.99989 23902 ft 377 kts 290°
2026-05-06 19:27 21.10319 -158.02655 23491 ft 378 kts 289°
2026-05-06 19:28 21.11162 -158.05328 23020 ft 378 kts 289°
2026-05-06 19:28 21.11996 -158.07990 22632 ft 375 kts 289°
2026-05-06 19:28 21.12813 -158.10601 22253 ft 372 kts 289°
2026-05-06 19:28 21.13633 -158.13219 21883 ft 369 kts 289°
2026-05-06 19:29 21.14448 -158.15820 21490 ft 367 kts 289°
2026-05-06 19:29 21.15259 -158.18408 21114 ft 365 kts 288°
2026-05-06 19:29 21.16063 -158.20973 20759 ft 363 kts 288°
2026-05-06 19:29 21.16865 -158.23539 20356 ft 362 kts 288°
2026-05-06 19:30 21.17652 -158.26049 20006 ft 359 kts 288°
2026-05-06 19:30 21.18446 -158.28585 19636 ft 357 kts 288°
2026-05-06 19:30 21.19301 -158.31086 19246 ft 356 kts 294°
2026-05-06 19:30 21.20512 -158.33397 18860 ft 355 kts 301°
2026-05-06 19:31 21.21843 -158.35629 18475 ft 355 kts 302°
2026-05-06 19:31 21.23161 -158.37821 18061 ft 353 kts 302°
2026-05-06 19:31 21.25784 -158.42236 17301 ft 349 kts 301°
2026-05-06 19:32 21.27073 -158.44435 16952 ft 348 kts 301°
2026-05-06 19:32 21.28362 -158.46642 16547 ft 348 kts 301°
2026-05-06 19:32 21.29632 -158.48810 16175 ft 346 kts 300°
2026-05-06 19:32 21.30912 -158.50994 15815 ft 344 kts 300°
2026-05-06 19:33 21.32183 -158.53161 15441 ft 342 kts 300°
2026-05-06 19:33 21.33430 -158.55288 15076 ft 340 kts 300°
2026-05-06 19:33 21.34688 -158.57437 14688 ft 339 kts 300°
2026-05-06 19:33 21.35945 -158.59585 14280 ft 339 kts 300°
2026-05-06 19:34 21.37202 -158.61735 13870 ft 339 kts 300°
2026-05-06 19:34 21.38452 -158.63873 13459 ft 337 kts 300°
2026-05-06 19:34 21.39680 -158.65973 13097 ft 335 kts 300°
2026-05-06 19:34 21.40915 -158.68087 12719 ft 332 kts 300°
2026-05-06 19:35 21.42139 -158.70183 12363 ft 330 kts 300°
2026-05-06 19:35 21.43352 -158.72262 12018 ft 328 kts 300°
2026-05-06 19:35 21.44560 -158.74331 11659 ft 324 kts 300°
2026-05-06 19:35 21.45729 -158.76334 11308 ft 315 kts 300°
2026-05-06 19:36 21.46879 -158.78306 10959 ft 306 kts 300°
2026-05-06 19:36 21.48004 -158.80236 10645 ft 304 kts 300°
2026-05-06 19:36 21.49127 -158.82165 10375 ft 301 kts 300°
2026-05-06 19:36 21.50212 -158.84025 10224 ft 294 kts 300°
2026-05-06 19:37 21.51281 -158.85860 10080 ft 286 kts 300°
2026-05-06 19:37 21.52329 -158.87657 9870 ft 282 kts 300°
2026-05-06 19:37 21.53364 -158.89430 9561 ft 278 kts 300°
2026-05-06 19:37 21.54212 -158.90882 9330 ft 276 kts 300°
2026-05-06 19:38 21.55225 -158.92620 9049 ft 274 kts 300°
2026-05-06 19:38 21.56225 -158.94335 8776 ft 273 kts 300°
2026-05-06 19:38 21.57233 -158.96063 8504 ft 272 kts 300°
2026-05-06 19:38 21.58235 -158.97785 8228 ft 271 kts 300°
2026-05-06 19:39 21.59236 -158.99503 7955 ft 270 kts 300°
2026-05-06 19:39 21.60216 -159.01185 7677 ft 269 kts 300°
2026-05-06 19:39 21.61205 -159.02884 7416 ft 267 kts 300°
2026-05-06 19:39 21.62192 -159.04581 7151 ft 266 kts 300°
2026-05-06 19:40 21.63173 -159.06269 6869 ft 266 kts 300°
2026-05-06 19:40 21.64152 -159.07952 6601 ft 265 kts 300°
2026-05-06 19:40 21.65129 -159.09633 6314 ft 265 kts 300°
2026-05-06 19:40 21.66093 -159.11292 6031 ft 264 kts 300°
2026-05-06 19:41 21.67064 -159.12964 5748 ft 263 kts 300°
2026-05-06 19:41 21.68032 -159.14630 5476 ft 261 kts 300°
2026-05-06 19:41 21.68993 -159.16285 5209 ft 260 kts 300°
2026-05-06 19:41 21.69941 -159.17934 4945 ft 258 kts 300°
2026-05-06 19:42 21.70866 -159.19553 4683 ft 257 kts 301°
2026-05-06 19:42 21.71801 -159.21187 4402 ft 255 kts 301°
2026-05-06 19:42 21.72727 -159.22809 4152 ft 253 kts 301°
2026-05-06 19:42 21.73639 -159.24402 4035 ft 245 kts 301°
2026-05-06 19:43 21.74517 -159.25920 3910 ft 237 kts 302°
2026-05-06 19:43 21.75373 -159.27392 3852 ft 225 kts 302°
2026-05-06 19:43 21.76181 -159.28780 3747 ft 212 kts 302°
2026-05-06 19:43 21.76954 -159.30108 3674 ft 208 kts 302°
2026-05-06 19:44 21.77722 -159.31429 3591 ft 210 kts 302°
2026-05-06 19:44 21.78521 -159.32749 3425 ft 211 kts 310°
2026-05-06 19:44 21.79734 -159.33524 3260 ft 208 kts 352°
2026-05-06 19:44 21.81193 -159.33553 3019 ft 212 kts 359°
2026-05-06 19:45 21.82663 -159.33581 2728 ft 209 kts 359°
2026-05-06 19:45 21.84094 -159.33593 2468 ft 201 kts
2026-05-06 19:45 21.85476 -159.33593 2204 ft 196 kts
2026-05-06 19:45 21.86788 -159.33592 1948 ft 184 kts
2026-05-06 19:46 21.88019 -159.33591 1704 ft 170 kts
2026-05-06 19:46 21.89161 -159.33591 1503 ft 157 kts
2026-05-06 19:46 21.90223 -159.33589 1324 ft 154 kts
2026-05-06 19:46 21.91301 -159.33591 1094 ft 153 kts 360°
2026-05-06 19:47 21.92359 -159.33589 904 ft 153 kts
2026-05-06 19:47 21.93404 -159.33587 736 ft 151 kts
2026-05-06 19:47 21.94445 -159.33591 531 ft 149 kts
2026-05-06 19:47 21.95480 -159.33596 296 ft 149 kts
2026-05-06 19:48 21.96500 -159.33592 109 ft 143 kts
2026-05-06 19:48 21.97393 -159.33591 113 ft 103 kts
2026-05-06 19:48 21.97891 -159.33590 135 ft 42 kts 360°
2026-05-06 19:48 21.98110 -159.33592 142 ft 13 kts 356°
2026-05-06 19:49 21.98157 -159.33653 139 ft 13 kts 273°
2026-05-06 19:49 21.98071 -159.33710 129 ft 18 kts 180°
2026-05-06 19:49 21.97967 -159.33714 127 ft 13 kts 200°
2026-05-06 19:49 21.97940 -159.33821 118 ft 20 kts 270°
2026-05-06 19:50 21.97940 -159.34001 107 ft 27 kts 270°
2026-05-06 19:50 21.97939 -159.34203 107 ft 26 kts 270°
2026-05-06 19:50 21.97927 -159.34368 112 ft 20 kts 242°
2026-05-06 19:50 21.97834 -159.34472 115 ft 21 kts 225°
2026-05-06 19:51 21.97713 -159.34602 121 ft 25 kts 225°
2026-05-06 19:51 21.97591 -159.34732 129 ft 23 kts 225°
2026-05-06 19:51 21.97540 -159.34813 133 ft 11 kts 275°
2026-05-06 19:51 21.97585 -159.34878 133 ft 11 kts 308°
2026-05-06 19:52 21.97572 -159.34950 135 ft 10 kts 243°
2026-05-06 19:52 21.97587 -159.35004 136 ft 7 kts 319°
2026-05-06 19:52 21.97603 -159.35017 135 ft 0 kts 322°